Location: Ariel
(45.9570°N, 122.5700°W)
Time: 06:03:35
(UTC-07:00)

A-11 Canister half - Pass Details

Date: 02 September 2019
Orbit: 1514 x 1686 km, 47.2° (Epoch: 23 October)

Event Time Altitude Azimuth Distance (km) Brightness Sun altitude
Rises 20:53:48 0° 288° (WNW) 4,703 13.6 -11.9°
Reaches altitude 10° 20:56:49 10° 287° (WNW) 3,736 12.5 -12.4°
Maximum altitude 21:06:16 75° 204° (SSW) 1,637 9.1 -13.8°
Enters shadow 21:13:52 19° 123° (ESE) 3,184 10.0 -15.0°
